QPF
0.00 0.00 0.00 0.00 0.00 0.00 0.00 0.00 0.00 0.00 0.00 0.00 0.00 0.00 0.00 0.00 0.00 0.00 0.00 0.00 0.00 0.00 0.00 0.00 0.00 0.00 0.00 0.00 0.00 0.00 0.00 0.00 0.00 0.00 0.00 0.00 0.00 0.00 0.00 0.00 0.00 0.00 0.00 0.00
0.00 0.00 0.00 0.00 0.00 0.00 0.00 0.00 0.00 0.00 0.00 0.00 0.00 0.00 0.00 0.00 0.00 0.00 0.00 0.00 0.00 0.00 0.00 0.00 0.00 0.00 0.00 0.00 0.00 0.00 0.00 0.00 0.00 0.00 0.00 0.00 0.00 0.00 0.00 0.00 0.00 0.00 0.00 0.00
0.00 0.00 0.00 0.00 0.00 0.00 0.00 0.00 0.00 0.00 0.00 0.00 0.00 0.00 0.00 0.00 0.00 0.00 0.00 0.00 0.00 0.00 0.00 0.00 0.00 0.00 0.00 0.00 0.00 0.00 0.00 0.00 0.00 0.00 0.00 0.00 0.00 0.00 0.00 0.00 0.00 0.00 0.00 0.00
0.00 0.00 0.00 0.00 0.00 0.00 0.00 0.00 0.00 0.00 0.00 0.00 0.00 0.00 0.00 0.00 0.00 0.00 0.00 0.00 0.00 0.00 0.00 0.00 0.00 0.00 0.00 0.00 0.00 0.00 0.00 0.00 0.00 0.00 0.00 0.00 0.00 0.00 0.00 0.00 0.00 0.00 0.00 0.00
0.00 0.00 0.00 0.00 0.00 0.00 0.00 0.00 0.00 0.00 0.00 0.00 0.00 0.00 0.00 0.00 0.00 0.00 0.00 0.00 0.00 0.00 0.00 0.00 0.00 0.00 0.00 0.00 0.00 0.00 0.00 0.00 0.00 0.00 0.00 0.00 0.00 0.00 0.00 0.00 0.00 0.00 0.00 0.00
0.00 0.00 0.00 0.00 0.00 0.00 0.00 0.00 0.00 0.00 0.00 0.00 0.00 0.00 0.00 0.00 0.00 0.00 0.00 0.00 0.00 0.00 0.00 0.00 0.00 0.00 0.00 0.00 0.00 0.00 0.00 0.00 0.00 0.00 0.00 0.00 0.00 0.00 0.00 0.00 0.00 0.00 0.00 0.00
0.00 0.00 0.00 0.00 0.00 0.00 0.00 0.00 0.00 0.00 0.00 0.00 0.00 0.00 0.00 0.00 0.00 0.00 0.00 0.00 0.00 0.00 0.00 0.00 0.00 0.00 0.00 0.00 0.00 0.00 0.00 0.00 0.00 0.00 0.00 0.00 0.00 0.00 0.00 0.00 0.00 0.00 0.00 0.00
0.00 0.00 0.00 0.00 0.00 0.00 0.00 0.00 0.00 0.00 0.00 0.00 0.00 0.00 0.00 0.00 0.00 0.00 0.00 0.00 0.00 0.00 0.00 0.00 0.00 0.00 0.00 0.00 0.00 0.00 0.00 0.00 0.00 0.00 0.00 0.00 0.00 0.00 0.00 0.00 0.00 0.00 0.00 0.00
0.00 0.00 0.00 0.00 0.00 0.00 0.00 0.00 0.00 0.00 0.00 0.00 0.00 0.00 0.00 0.00 0.00 0.00 0.00 0.00 0.00 0.00 0.00 0.00 0.00 0.00 0.00 0.00 0.00 0.00 0.00 0.00 0.00 0.00 0.00 0.00 0.00 0.00 0.00 0.00 0.00 0.00 0.00 0.00
0.00 0.00 0.00 0.00 0.00 0.00 0.00 0.00 0.00 0.00 0.00 0.00 0.00 0.00 0.00 0.00 0.00 0.00 0.00 0.00 0.00 0.00 0.00 0.00 0.00 0.00 0.00 0.00 0.00 0.00 0.00 0.00 0.00 0.00 0.00 0.00 0.00 0.00 0.00 0.00 0.00 0.00 0.00 0.00
0.00 0.00 0.00 0.00 0.00 0.00 0.00 0.00 0.00 0.00 0.00 0.00 0.00 0.00 0.00 0.00 0.00 0.00 0.00 0.00 0.00 0.00 0.00 0.00 0.00 0.00 0.00 0.00 0.00 0.00 0.00 0.00 0.00 0.00 0.00 0.00 0.00 0.00 0.00 0.00 0.00 0.00 0.00 0.01
0.00 0.00 0.00 0.00 0.00 0.00 0.00 0.00 0.00 0.00 0.00 0.00 0.00 0.00 0.00 0.00 0.00 0.00 0.00 0.00 0.00 0.00 0.00 0.00 0.00 0.00 0.00 0.00 0.00 0.00 0.00 0.00 0.00 0.00 0.00 0.00 0.00 0.00 0.00 0.00 0.00 0.00 0.00 0.00
0.00 0.00 0.00 0.00 0.00 0.00 0.00 0.00 0.00 0.00 0.00 0.00 0.00 0.00 0.00 0.00 0.00 0.00 0.00 0.00 0.00 0.00 0.00 0.00 0.00 0.00 0.00 0.00 0.00 0.00 0.00 0.00 0.00 0.00 0.00 0.00 0.00 0.00 0.00 0.00 0.00 0.00 0.00 0.00
0.00 0.00 0.00 0.00 0.00 0.00 0.00 0.00 0.00 0.00 0.00 0.00 0.00 0.00 0.00 0.00 0.00 0.00 0.00 0.00 0.00 0.00 0.00 0.00 0.00 0.00 0.00 0.00 0.00 0.00 0.00 0.00 0.00 0.00 0.00 0.00 0.00 0.00 0.00 0.00 0.00 0.00 0.00 0.00
0.00 0.00 0.00 0.00 0.00 0.00 0.00 0.00 0.00 0.00 0.00 0.00 0.00 0.00 0.00 0.00 0.00 0.00 0.00 0.00 0.00 0.00 0.00 0.00 0.00 0.00 0.00 0.00 0.00 0.00 0.00 0.00 0.00 0.00 0.00 0.00 0.00 0.00 0.00 0.00 0.00 0.00 0.00 0.00
0.00 0.00 0.00 0.00 0.00 0.00 0.00 0.00 0.00 0.00 0.00 0.00 0.00 0.00 0.00 0.00 0.00 0.00 0.00 0.00 0.00 0.00 0.00 0.00 0.00 0.00 0.00 0.00 0.00 0.00 0.00 0.00 0.00 0.00 0.00 0.00 0.00 0.00 0.00 0.01 0.01 0.01 0.00 0.00
0.00 0.00 0.00 0.00 0.00 0.00 0.00 0.00 0.00 0.00 0.00 0.00 0.00 0.00 0.00 0.00 0.00 0.00 0.00 0.00 0.00 0.00 0.00 0.00 0.00 0.00 0.00 0.00 0.00 0.00 0.00 0.00 0.00 0.00 0.00 0.00 0.00 0.01 0.01 0.01 0.01 0.01 0.00 0.00
0.00 0.00 0.00 0.00 0.00 0.00 0.00 0.00 0.00 0.00 0.00 0.00 0.00 0.00 0.00 0.00 0.00 0.00 0.00 0.00 0.00 0.00 0.00 0.00 0.00 0.00 0.00 0.00 0.00 0.00 0.00 0.00 0.00 0.00 0.00 0.01 0.01 0.01 0.01 0.01 0.01 0.01 0.00 0.00
0.00 0.00 0.00 0.00 0.00 0.00 0.00 0.00 0.00 0.00 0.00 0.00 0.00 0.00 0.00 0.00 0.00 0.00 0.00 0.00 0.00 0.00 0.00 0.00 0.00 0.00 0.00 0.00 0.00 0.00 0.00 0.00 0.00 0.01 0.01 0.01 0.01 0.01 0.01 0.01 0.01 0.01 0.01 0.01
0.00 0.00 0.00 0.00 0.00 0.00 0.00 0.00 0.00 0.00 0.00 0.00 0.00 0.00 0.00 0.00 0.00 0.00 0.00 0.00 0.00 0.00 0.00 0.00 0.00 0.00 0.00 0.00 0.00 0.00 0.01 0.01 0.01 0.01 0.01 0.01 0.01 0.01 0.01 0.01 0.01 0.01 0.01 0.01
0.00 0.00 0.00 0.00 0.00 0.00 0.00 0.00 0.00 0.00 0.00 0.00 0.00 0.00 0.00 0.00 0.00 0.00 0.00 0.00 0.00 0.00 0.00 0.00 0.00 0.00 0.00 0.00 0.01 0.01 0.01 0.01 0.01 0.01 0.01 0.01 0.01 0.01 0.01 0.01 0.01 0.01 0.01 0.01
0.00 0.00 0.00 0.00 0.00 0.00 0.00 0.00 0.00 0.00 0.00 0.00 0.00 0.00 0.00 0.00 0.00 0.00 0.00 0.00 0.00 0.00 0.00 0.00 0.00 0.00 0.01 0.01 0.01 0.01 0.01 0.01 0.01 0.01 0.01 0.01 0.01 0.01 0.01 0.01 0.01 0.01 0.01 0.01
0.00 0.00 0.00 0.00 0.00 0.00 0.00 0.00 0.00 0.00 0.00 0.00 0.00 0.00 0.00 0.00 0.00 0.00 0.00 0.00 0.00 0.00 0.00 0.00 0.00 0.01 0.01 0.01 0.01 0.01 0.01 0.01 0.01 0.01 0.01 0.01 0.01 0.01 0.01 0.01 0.01 0.01 0.01 0.01
0.00 0.00 0.00 0.00 0.00 0.00 0.00 0.00 0.00 0.00 0.00 0.00 0.00 0.00 0.00 0.00 0.00 0.00 0.00 0.00 0.00 0.00 0.00 0.00 0.00 0.01 0.01 0.01 0.01 0.01 0.01 0.01 0.01 0.01 0.01 0.01 0.01 0.01 0.01 0.01 0.01 0.01 0.01 0.01
0.00 0.00 0.00 0.00 0.00 0.00 0.00 0.00 0.00 0.00 0.00 0.00 0.00 0.00 0.00 0.00 0.00 0.00 0.00 0.00 0.00 0.00 0.00 0.00 0.00 0.00 0.00 0.00 0.00 0.00 0.00 0.01 0.01 0.01 0.02 0.02 0.01 0.01 0.01 0.01 0.01 0.01 0.01 0.01
0.00 0.00 0.00 0.00 0.00 0.00 0.00 0.00 0.00 0.00 0.00 0.00 0.00 0.00 0.00 0.00 0.00 0.00 0.00 0.00 0.00 0.00 0.00 0.00 0.00 0.00 0.00 0.00 0.00 0.00 0.01 0.01 0.01 0.01 0.01 0.01 0.01 0.01 0.01 0.01 0.01 0.01 0.01 0.01
0.00 0.00 0.00 0.00 0.00 0.00 0.00 0.00 0.00 0.00 0.00 0.00 0.00 0.00 0.00 0.00 0.00 0.00 0.00 0.00 0.00 0.00 0.00 0.00 0.00 0.00 0.00 0.00 0.00 0.00 0.00 0.01 0.01 0.01 0.01 0.01 0.01 0.01 0.01 0.01 0.01 0.01 0.01 0.01
MSLP
1010.54 1010.82 1011.10 1011.35 1011.55 1011.66 1011.66 1011.54 1011.30 1010.97 1010.59 1010.22 1009.91 1009.73 1009.71 1009.88 1010.25 1010.80 1011.52 1012.35 1013.27 1014.21 1015.13 1016.00 1016.80 1017.50 1018.09 1018.58 1018.98 1019.28 1019.50 1019.65 1019.74 1019.79 1019.79 1019.74 1019.66 1019.53 1019.34 1019.11 1018.83 1018.51 1018.16 1017.79
1010.49 1010.65 1010.78 1010.89 1010.95 1010.95 1010.87 1010.72 1010.50 1010.24 1009.96 1009.70 1009.52 1009.45 1009.52 1009.75 1010.15 1010.73 1011.44 1012.27 1013.18 1014.12 1015.05 1015.94 1016.75 1017.47 1018.07 1018.55 1018.92 1019.19 1019.36 1019.46 1019.50 1019.50 1019.46 1019.38 1019.27 1019.12 1018.92 1018.68 1018.38 1018.05 1017.69 1017.30
1010.62 1010.64 1010.62 1010.56 1010.47 1010.34 1010.18 1009.98 1009.78 1009.57 1009.38 1009.25 1009.19 1009.24 1009.42 1009.74 1010.21 1010.81 1011.54 1012.38 1013.27 1014.20 1015.12 1015.98 1016.78 1017.46 1018.03 1018.47 1018.79 1019.00 1019.12 1019.16 1019.15 1019.11 1019.04 1018.95 1018.83 1018.68 1018.49 1018.26 1017.98 1017.64 1017.27 1016.88
1010.77 1010.66 1010.50 1010.30 1010.06 1009.81 1009.57 1009.34 1009.14 1008.99 1008.90 1008.89 1008.98 1009.17 1009.47 1009.89 1010.44 1011.09 1011.84 1012.67 1013.55 1014.44 1015.31 1016.12 1016.85 1017.47 1017.97 1018.34 1018.58 1018.72 1018.77 1018.76 1018.71 1018.64 1018.56 1018.47 1018.37 1018.25 1018.09 1017.88 1017.62 1017.30 1016.93 1016.53
1010.79 1010.59 1010.31 1009.99 1009.65 1009.32 1009.02 1008.78 1008.62 1008.54 1008.56 1008.68 1008.91 1009.25 1009.68 1010.22 1010.84 1011.54 1012.31 1013.13 1013.97 1014.80 1015.59 1016.32 1016.96 1017.48 1017.88 1018.16 1018.31 1018.37 1018.36 1018.30 1018.22 1018.13 1018.06 1017.98 1017.91 1017.83 1017.71 1017.54 1017.30 1016.99 1016.62 1016.19
1010.55 1010.29 1009.96 1009.58 1009.19 1008.83 1008.53 1008.32 1008.22 1008.23 1008.37 1008.63 1009.01 1009.48 1010.05 1010.68 1011.38 1012.12 1012.89 1013.68 1014.46 1015.21 1015.90 1016.52 1017.05 1017.46 1017.75 1017.92 1017.99 1017.98 1017.91 1017.81 1017.71 1017.62 1017.55 1017.50 1017.46 1017.41 1017.32 1017.18 1016.96 1016.66 1016.28 1015.83
1010.01 1009.75 1009.42 1009.05 1008.68 1008.35 1008.10 1007.96 1007.95 1008.08 1008.35 1008.75 1009.26 1009.86 1010.53 1011.24 1011.99 1012.74 1013.50 1014.23 1014.94 1015.59 1016.17 1016.67 1017.08 1017.37 1017.56 1017.65 1017.64 1017.57 1017.46 1017.33 1017.21 1017.12 1017.06 1017.02 1017.00 1016.97 1016.90 1016.77 1016.56 1016.26 1015.86 1015.38
1009.22 1009.02 1008.74 1008.44 1008.14 1007.90 1007.75 1007.73 1007.84 1008.09 1008.49 1009.01 1009.63 1010.33 1011.07 1011.83 1012.59 1013.33 1014.04 1014.71 1015.32 1015.86 1016.33 1016.72 1017.02 1017.21 1017.32 1017.33 1017.27 1017.16 1017.02 1016.88 1016.75 1016.65 1016.58 1016.54 1016.52 1016.48 1016.40 1016.26 1016.04 1015.73 1015.31 1014.81
1008.32 1008.20 1008.02 1007.83 1007.66 1007.55 1007.53 1007.63 1007.87 1008.25 1008.75 1009.37 1010.07 1010.82 1011.60 1012.37 1013.11 1013.81 1014.46 1015.04 1015.55 1015.99 1016.36 1016.64 1016.85 1016.98 1017.02 1016.99 1016.91 1016.78 1016.63 1016.47 1016.33 1016.21 1016.12 1016.06 1016.00 1015.93 1015.82 1015.65 1015.40 1015.06 1014.63 1014.12
1007.46 1007.45 1007.40 1007.34 1007.31 1007.35 1007.47 1007.70 1008.05 1008.53 1009.11 1009.79 1010.52 1011.29 1012.06 1012.80 1013.50 1014.14 1014.70 1015.19 1015.61 1015.96 1016.24 1016.45 1016.60 1016.68 1016.69 1016.65 1016.56 1016.43 1016.28 1016.12 1015.96 1015.81 1015.69 1015.57 1015.45 1015.32 1015.16 1014.94 1014.65 1014.29 1013.85 1013.33
1006.81 1006.90 1006.97 1007.05 1007.16 1007.33 1007.58 1007.91 1008.36 1008.90 1009.52 1010.22 1010.95 1011.70 1012.43 1013.12 1013.75 1014.31 1014.79 1015.20 1015.53 1015.81 1016.02 1016.18 1016.29 1016.35 1016.36 1016.32 1016.24 1016.12 1015.98 1015.81 1015.63 1015.45 1015.26 1015.08 1014.89 1014.69 1014.46 1014.18 1013.86 1013.47 1013.03 1012.52
1006.45 1006.63 1006.81 1007.00 1007.23 1007.51 1007.85 1008.26 1008.75 1009.32 1009.95 1010.63 1011.34 1012.04 1012.71 1013.33 1013.88 1014.36 1014.77 1015.10 1015.37 1015.58 1015.75 1015.88 1015.97 1016.02 1016.04 1016.02 1015.96 1015.86 1015.71 1015.54 1015.33 1015.10 1014.86 1014.61 1014.34 1014.06 1013.76 1013.43 1013.07 1012.67 1012.24 1011.76
1006.39 1006.63 1006.89 1007.18 1007.49 1007.84 1008.24 1008.70 1009.21 1009.77 1010.39 1011.03 1011.68 1012.32 1012.92 1013.47 1013.96 1014.37 1014.71 1014.98 1015.20 1015.36 1015.50 1015.60 1015.68 1015.73 1015.76 1015.75 1015.70 1015.60 1015.46 1015.27 1015.04 1014.77 1014.47 1014.15 1013.81 1013.46 1013.10 1012.74 1012.35 1011.95 1011.53 1011.09
1006.56 1006.85 1007.17 1007.52 1007.89 1008.28 1008.71 1009.18 1009.69 1010.24 1010.82 1011.41 1012.01 1012.58 1013.13 1013.61 1014.04 1014.39 1014.68 1014.90 1015.07 1015.20 1015.30 1015.37 1015.43 1015.47 1015.49 1015.48 1015.43 1015.33 1015.18 1014.98 1014.72 1014.41 1014.07 1013.69 1013.30 1012.90 1012.50 1012.10 1011.71 1011.32 1010.92 1010.52
1006.88 1007.21 1007.57 1007.96 1008.36 1008.79 1009.23 1009.70 1010.19 1010.71 1011.25 1011.80 1012.34 1012.87 1013.36 1013.80 1014.17 1014.48 1014.71 1014.89 1015.01 1015.10 1015.15 1015.19 1015.21 1015.22 1015.21 1015.18 1015.11 1015.00 1014.83 1014.61 1014.33 1013.99 1013.61 1013.20 1012.78 1012.35 1011.93 1011.52 1011.13 1010.76 1010.39 1010.02
1007.26 1007.62 1008.02 1008.44 1008.88 1009.32 1009.77 1010.23 1010.71 1011.20 1011.71 1012.22 1012.72 1013.20 1013.65 1014.04 1014.37 1014.63 1014.82 1014.94 1015.01 1015.04 1015.03 1015.01 1014.97 1014.93 1014.88 1014.80 1014.70 1014.56 1014.37 1014.12 1013.82 1013.47 1013.07 1012.65 1012.21 1011.77 1011.34 1010.94 1010.56 1010.21 1009.87 1009.54
1007.66 1008.06 1008.50 1008.95 1009.41 1009.87 1010.33 1010.79 1011.25 1011.72 1012.20 1012.68 1013.14 1013.58 1013.99 1014.34 1014.62 1014.82 1014.95 1015.02 1015.01 1014.96 1014.88 1014.78 1014.67 1014.56 1014.44 1014.31 1014.16 1013.98 1013.76 1013.49 1013.18 1012.82 1012.41 1011.98 1011.55 1011.11 1010.69 1010.30 1009.94 1009.61 1009.30 1009.00
1008.09 1008.53 1009.01 1009.50 1009.98 1010.46 1010.92 1011.38 1011.83 1012.27 1012.72 1013.16 1013.58 1013.98 1014.33 1014.62 1014.84 1014.99 1015.05 1015.03 1014.94 1014.81 1014.64 1014.45 1014.25 1014.06 1013.86 1013.67 1013.47 1013.25 1013.01 1012.72 1012.40 1012.04 1011.63 1011.21 1010.78 1010.35 1009.95 1009.57 1009.23 1008.92 1008.63 1008.36
1008.58 1009.07 1009.58 1010.10 1010.60 1011.09 1011.55 1011.99 1012.42 1012.83 1013.24 1013.63 1014.00 1014.33 1014.61 1014.83 1014.97 1015.03 1015.01 1014.90 1014.73 1014.50 1014.24 1013.96 1013.68 1013.41 1013.15 1012.91 1012.66 1012.41 1012.14 1011.85 1011.52 1011.15 1010.76 1010.35 1009.92 1009.51 1009.11 1008.75 1008.42 1008.12 1007.86 1007.61
1009.19 1009.71 1010.25 1010.78 1011.28 1011.76 1012.20 1012.61 1012.99 1013.36 1013.70 1014.02 1014.31 1014.55 1014.75 1014.88 1014.93 1014.90 1014.78 1014.58 1014.32 1014.01 1013.67 1013.32 1012.98 1012.65 1012.34 1012.06 1011.78 1011.51 1011.23 1010.93 1010.60 1010.24 1009.85 1009.44 1009.03 1008.62 1008.22 1007.87 1007.55 1007.26 1007.02 1006.79
1009.92 1010.46 1011.00 1011.52 1012.00 1012.44 1012.83 1013.18 1013.50 1013.78 1014.04 1014.26 1014.45 1014.59 1014.68 1014.71 1014.66 1014.53 1014.33 1014.05 1013.72 1013.35 1012.95 1012.55 1012.17 1011.81 1011.48 1011.18 1010.90 1010.62 1010.34 1010.04 1009.72 1009.36 1008.98 1008.58 1008.16 1007.75 1007.36 1007.01 1006.69 1006.41 1006.18 1005.97
1010.76 1011.28 1011.80 1012.27 1012.70 1013.07 1013.39 1013.65 1013.87 1014.05 1014.20 1014.31 1014.38 1014.41 1014.39 1014.31 1014.17 1013.96 1013.68 1013.34 1012.96 1012.55 1012.13 1011.72 1011.33 1010.97 1010.64 1010.34 1010.07 1009.81 1009.54 1009.25 1008.94 1008.59 1008.21 1007.81 1007.39 1006.98 1006.59 1006.24 1005.92 1005.65 1005.42 1005.22
1011.61 1012.10 1012.55 1012.96 1013.30 1013.58 1013.79 1013.95 1014.06 1014.12 1014.14 1014.14 1014.10 1014.02 1013.89 1013.72 1013.49 1013.21 1012.88 1012.51 1012.11 1011.69 1011.28 1010.88 1010.50 1010.17 1009.87 1009.60 1009.35 1009.10 1008.85 1008.58 1008.28 1007.95 1007.58 1007.18 1006.77 1006.37 1005.98 1005.62 1005.30 1005.02 1004.79 1004.60
1012.39 1012.81 1013.18 1013.49 1013.73 1013.90 1014.00 1014.03 1014.02 1013.97 1013.88 1013.77 1013.62 1013.45 1013.24 1012.99 1012.71 1012.39 1012.03 1011.65 1011.25 1010.85 1010.46 1010.09 1009.75 1009.45 1009.18 1008.95 1008.73 1008.51 1008.29 1008.04 1007.75 1007.43 1007.08 1006.70 1006.30 1005.90 1005.51 1005.16 1004.84 1004.56 1004.32 1004.12
1013.00 1013.34 1013.61 1013.82 1013.94 1014.00 1013.98 1013.91 1013.79 1013.64 1013.46 1013.25 1013.03 1012.79 1012.52 1012.23 1011.92 1011.58 1011.22 1010.84 1010.46 1010.08 1009.72 1009.38 1009.08 1008.82 1008.58 1008.38 1008.18 1007.99 1007.79 1007.56 1007.30 1007.00 1006.66 1006.30 1005.92 1005.54 1005.17 1004.82 1004.50 1004.22 1003.97 1003.74
1013.39 1013.64 1013.82 1013.91 1013.94 1013.89 1013.77 1013.61 1013.41 1013.18 1012.94 1012.68 1012.41 1012.13 1011.83 1011.52 1011.19 1010.85 1010.49 1010.13 1009.76 1009.41 1009.07 1008.76 1008.48 1008.24 1008.02 1007.83 1007.65 1007.48 1007.29 1007.08 1006.84 1006.56 1006.26 1005.92 1005.57 1005.21 1004.86 1004.53 1004.21 1003.92 1003.65 1003.39
1013.58 1013.74 1013.82 1013.83 1013.76 1013.62 1013.44 1013.22 1012.96 1012.69 1012.41 1012.12 1011.83 1011.54 1011.23 1010.92 1010.59 1010.25 1009.89 1009.53 1009.17 1008.82 1008.48 1008.18 1007.90 1007.65 1007.43 1007.24 1007.06 1006.88 1006.70 1006.51 1006.29 1006.04 1005.77 1005.47 1005.15 1004.82 1004.50 1004.17 1003.86 1003.56 1003.26 1002.97
Thickness
5618 5622 5624 5622 5621 5620 5615 5618 5615 5626 5632 5641 5639 5636 5634 5629 5624 5617 5609 5602 5595 5586 5579 5571 5564 5557 5551 5545 5540 5534 5529 5524 5520 5516 5512 5508 5504 5500 5496 5492 5488 5483 5479 5475
5608 5615 5614 5612 5618 5619 5617 5619 5619 5622 5627 5642 5638 5633 5627 5621 5615 5607 5599 5592 5584 5576 5568 5560 5553 5546 5539 5533 5529 5524 5518 5514 5510 5506 5501 5497 5492 5488 5484 5480 5476 5471 5467 5462
5591 5605 5600 5594 5612 5616 5618 5623 5620 5614 5624 5629 5625 5623 5617 5611 5606 5598 5589 5580 5572 5563 5556 5548 5541 5535 5528 5523 5518 5513 5508 5504 5500 5495 5491 5486 5482 5477 5472 5468 5464 5459 5454 5448
5584 5586 5572 5607 5627 5626 5621 5623 5624 5623 5624 5620 5616 5610 5607 5603 5594 5585 5577 5568 5559 5550 5543 5536 5530 5524 5518 5512 5507 5502 5498 5494 5490 5485 5480 5475 5470 5466 5461 5457 5452 5447 5441 5435
5572 5570 5582 5607 5614 5615 5610 5611 5623 5619 5616 5606 5600 5593 5588 5588 5583 5573 5564 5555 5545 5537 5530 5524 5518 5512 5506 5501 5496 5492 5488 5484 5480 5474 5469 5464 5459 5454 5450 5445 5440 5434 5428 5421
5567 5562 5566 5598 5605 5611 5605 5594 5612 5611 5603 5591 5585 5571 5571 5571 5565 5556 5547 5539 5531 5524 5518 5512 5506 5501 5495 5490 5485 5481 5478 5474 5469 5464 5458 5453 5448 5443 5438 5432 5427 5421 5415 5407
5559 5557 5573 5594 5594 5595 5580 5587 5595 5596 5590 5580 5573 5567 5563 5556 5547 5540 5531 5524 5518 5512 5505 5500 5495 5490 5484 5479 5474 5471 5468 5464 5459 5453 5447 5442 5437 5431 5425 5419 5414 5407 5402 5395
5559 5554 5565 5583 5582 5581 5582 5583 5584 5581 5577 5569 5558 5553 5547 5539 5531 5524 5516 5511 5505 5498 5492 5488 5484 5478 5473 5468 5465 5462 5457 5452 5447 5442 5436 5431 5424 5418 5411 5404 5398 5391 5385 5380
5572 5572 5581 5581 5580 5578 5578 5574 5572 5567 5562 5553 5544 5537 5531 5523 5516 5511 5504 5498 5492 5486 5481 5476 5472 5467 5461 5458 5455 5450 5445 5440 5435 5430 5424 5417 5411 5404 5397 5389 5381 5374 5367 5363
5572 5572 5573 5572 5570 5567 5566 5564 5560 5555 5548 5540 5532 5524 5517 5510 5503 5497 5492 5486 5480 5474 5469 5464 5460 5456 5451 5448 5443 5438 5433 5428 5423 5417 5412 5405 5398 5390 5382 5373 5364 5357 5350 5345
5563 5565 5562 5562 5561 5557 5553 5550 5545 5539 5533 5527 5519 5511 5504 5497 5491 5485 5480 5474 5468 5462 5457 5453 5449 5445 5441 5436 5431 5426 5421 5416 5410 5404 5398 5392 5385 5376 5368 5360 5347 5341 5336 5329
5555 5559 5555 5552 5551 5547 5540 5535 5529 5522 5516 5511 5506 5499 5492 5485 5479 5473 5467 5461 5455 5450 5445 5441 5437 5433 5429 5424 5419 5414 5409 5403 5396 5390 5383 5376 5370 5366 5359 5347 5340 5330 5322 5316
5547 5546 5543 5540 5537 5534 5528 5521 5515 5509 5502 5496 5491 5485 5479 5472 5466 5460 5454 5449 5443 5439 5434 5430 5425 5421 5417 5413 5408 5401 5394 5389 5382 5375 5368 5361 5353 5347 5344 5342 5330 5320 5312 5307
5532 5530 5525 5524 5520 5517 5512 5506 5500 5494 5488 5483 5476 5470 5464 5458 5452 5446 5441 5436 5432 5428 5423 5418 5414 5410 5405 5400 5394 5387 5380 5374 5367 5360 5352 5344 5337 5329 5323 5320 5319 5315 5306 5299
5519 5519 5515 5511 5505 5500 5494 5489 5483 5477 5472 5467 5461 5455 5450 5444 5438 5433 5429 5425 5421 5416 5412 5407 5402 5398 5392 5386 5380 5373 5366 5359 5351 5344 5337 5329 5322 5315 5309 5304 5301 5300 5299 5294
5506 5503 5500 5495 5490 5484 5479 5474 5469 5463 5458 5453 5447 5442 5437 5432 5426 5422 5418 5414 5409 5404 5399 5394 5389 5385 5380 5373 5366 5359 5352 5345 5337 5330 5322 5315 5308 5301 5296 5292 5289 5288 5287 5285
5490 5487 5484 5480 5475 5471 5466 5461 5457 5451 5445 5439 5434 5429 5424 5419 5415 5411 5407 5403 5398 5392 5387 5381 5377 5373 5366 5358 5350 5343 5336 5330 5323 5314 5306 5300 5294 5289 5285 5282 5280 5279 5278 5277
5483 5480 5476 5470 5464 5458 5452 5447 5442 5437 5431 5427 5422 5417 5412 5407 5403 5399 5395 5391 5386 5381 5376 5370 5365 5359 5352 5343 5334 5327 5320 5313 5306 5299 5293 5288 5283 5279 5276 5273 5272 5271 5272 5272
5469 5464 5460 5455 5450 5444 5438 5432 5428 5423 5419 5414 5410 5404 5400 5395 5391 5387 5383 5377 5371 5367 5365 5358 5353 5345 5337 5328 5320 5313 5305 5298 5293 5287 5281 5277 5274 5270 5267 5266 5265 5265 5265 5266
5451 5447 5442 5437 5433 5428 5423 5419 5416 5411 5407 5402 5397 5391 5387 5383 5379 5374 5369 5363 5358 5353 5351 5345 5337 5329 5321 5314 5306 5299 5291 5285 5280 5276 5271 5267 5265 5263 5261 5259 5259 5259 5260 5260
5434 5430 5426 5422 5418 5415 5411 5408 5403 5398 5394 5389 5384 5378 5374 5371 5366 5360 5354 5352 5350 5341 5336 5331 5322 5313 5305 5299 5293 5286 5279 5273 5268 5264 5261 5258 5256 5255 5255 5254 5254 5254 5255 5256
5420 5417 5414 5410 5406 5402 5398 5395 5391 5386 5381 5376 5371 5366 5361 5357 5352 5347 5343 5337 5335 5329 5322 5315 5306 5298 5291 5286 5280 5273 5267 5262 5258 5255 5252 5250 5249 5249 5249 5248 5248 5249 5250 5250
5408 5405 5401 5397 5393 5389 5385 5381 5378 5373 5368 5363 5358 5353 5348 5344 5338 5332 5331 5326 5317 5312 5306 5299 5291 5284 5278 5272 5266 5261 5256 5251 5248 5246 5244 5243 5242 5242 5243 5243 5244 5244 5244 5245
5395 5390 5386 5383 5379 5374 5370 5368 5364 5361 5356 5351 5345 5339 5333 5329 5326 5320 5313 5310 5304 5297 5290 5284 5277 5271 5266 5260 5254 5249 5245 5242 5240 5238 5237 5236 5236 5236 5237 5238 5238 5239 5240 5241
5380 5376 5372 5368 5364 5361 5359 5356 5352 5347 5342 5338 5333 5327 5320 5314 5309 5306 5299 5293 5287 5281 5275 5270 5264 5258 5253 5247 5243 5240 5237 5234 5232 5231 5231 5230 5230 5231 5232 5233 5234 5235 5236 5238
5367 5363 5360 5357 5353 5349 5345 5341 5336 5332 5327 5324 5320 5313 5306 5299 5293 5288 5283 5278 5272 5266 5261 5255 5250 5246 5241 5237 5234 5231 5229 5227 5225 5224 5223 5224 5225 5226 5228 5229 5230 5231 5233 5235
5353 5350 5347 5343 5340 5336 5331 5326 5321 5316 5310 5305 5303 5298 5290 5283 5277 5272 5267 5263 5258 5253 5248 5244 5239 5235 5232 5229 5226 5224 5222 5221 5220 5219 5220 5220 5221 5223 5224 5226 5227 5229 5230 5232